Regional Weather Roundup
Issued by NWS State College, PA

Home | Current Version | Previous Version | Text Only | Print | Product List | Glossary On
Versions: 1 2 3 4 5 6 7 8 9 10 11 12 13 14 15 16 17 18 19 20 21 22 23 24 25 26 27 28 29 30 31 32 33 34 35 36 37 38 39 40 41 42 43 44 45 46 47 48 49 50
000
ASUS41 KCTP 230710
RWRCTP

REGIONAL WEATHER ROUNDUP
NATIONAL WEATHER SERVICE STATE COLLEGE PA
300 AM EDT WED APR 23 2014

Note: "fair" indicates few or no clouds below 12,000 feet with no
significant weather and/or obstructions to visibility.

* = STATION THAT DOES NOT REPORT PRECIPITATION /E.G. RAIN...SNOW...ETC/
    THUNDER OR FOG.

PAZ002>004-007>009-013>016-020>023-029>032-230800-
WESTERN PENNSYLVANIA

CITY           SKY/WX    TMP DP  RH WIND       PRES   REMARKS
ERIE           CLOUDY    38  33  82 W12       29.84S
MEADVILLE      NOT AVBL
FRANKLIN*      CLOUDY    36  30  80 NW13G18   29.83S
NEW CASTLE     CLOUDY    38  33  82 CALM      29.87S
BEAVER COUNTY  NOT AVBL
BUTLER*        CLOUDY    39  32  75 W7G16     29.85S
PITTSBURGH INT CLOUDY    41  35  79 NW15      29.84R
PITTSBURGH     LGT RAIN  42  36  79 NW10G20   29.82S
INDIANA*       CLOUDY    39  36  87 NW9G16    29.80S
LATROBE        CLOUDY    43  37  81 NW13      29.83R
WASHINGTON CO* CLOUDY    43  32  65 NW8       29.85F
$$

PAZ004>006-010>012-017>019-024>028-033>037-041-042-045-046-049>053-230800-
CENTRAL PENNSYLVANIA

CITY           SKY/WX    TMP DP  RH WIND       PRES   REMARKS
BRADFORD       CLOUDY    34  30  85 W15G22    29.70F
DUBOIS         CLOUDY    37  33  85 W16G23    29.74S
CLEARFIELD     CLOUDY    38  33  82 NW14      29.74R
JOHNSTOWN      CLOUDY    37  34  89 NW16G28   29.74S
ALTOONA        MOCLDY    42  35  76 NW15G28   29.73S
STATE COLLEGE  CLOUDY    43  31  63 W18G26    29.69F
WILLIAMSPORT   CLOUDY    47  32  56 W14       29.65S
SELINSGROVE    CLOUDY    48  33  56 W9G17     29.67F
FT INDIANTOWN  NOT AVBL
CAPITAL CITY   CLOUDY    49  33  54 W10       29.68F
HARRISBURG     MOCLDY    50  34  54 W15       29.67F
YORK           CLEAR     46  34  62 W8        29.69S
$$

PAZ038>040-043-044-047-048-054-055-060>062-067>071-230800-
EASTERN PENNSYLVANIA

CITY           SKY/WX    TMP DP  RH WIND       PRES   REMARKS
SCRANTON       CLOUDY    45  32  60 W7        29.60S
MOUNT POCONO   CLOUDY    42  34  73 NW18G33   29.55S
ALLENTOWN      CLOUDY    48  33  56 W12       29.59S
QUAKERTOWN*    MOCLDY    48  32  53 W10G23    29.61R
READING        PTCLDY    48  33  56 W12       29.63S
LANCASTER      CLEAR     46  32  58 NW16G26   29.65F
COATESVILLE    NOT AVBL
POTTSTOWN      PTCLDY    46  35  65 W10       29.63S
BLUE BELL      MOCLDY    50  34  53 W12G25    29.60R
DOYLESTOWN     PTCLDY    48  35  60 NW20G25   29.58R
WILLOW GROVE   NOT AVBL
NORTH PHILA    MOCLDY    53  34  48 W20G28    29.61R
PHILADELPHIA   CLOUDY    53  31  42 NW20G31   29.63R
$$



USA.gov is the U.S. government's official web portal to all federal, state and local government web resources and services.